Voltar ao catálogo

ONEWEB-0129

AtivoComunicaçõesPO
NORAD 47275·PAYLOAD·🇬🇧 United Kingdom

Lançado Dec 18, 2020 de Vostochny Cosmodrome

Loading…

Próximas Passagens (próximas 24 horas)

TLE

AtualizadoSource: CelesTrak SupGP

Época: Sep 14, 2026, 14:40 UTC

1 47275C 20100T   26257.61128889  .00004099  00000+0  11408-1 0  2576
2 47275  87.8989 332.9068 0000795  96.9638   8.5429 13.12438645    15

Acompanhe ONEWEB-0129 em tempo real com AllMySat

Download on the App Store